N7LK Weather Reports


time (UTC)temp
C
wind
direction
speed
KPH
gust
KPH
rain 1hr
cm
rain 24hr
cm
rain mn
cm
humidity
%
barometer
mb
20260904193336 36 108 6.4 11.3 0.00 0.00 0.00 36 1009.9
20260904192343 36 142 1.6 14.5 0.00 0.00 0.00 36 1010.1
20260904191328 36 165 9.7 17.7 0.00 0.00 0.00 37 1010.2
20260904190339 36 140 9.7 19.3 0.00 0.00 0.00 37 1010.4
20260904185327 36 113 8.0 11.3 0.00 0.00 0.00 38 1010.5
20260904184334 36 150 3.2 9.7 0.00 0.00 0.00 39 1010.8
20260904183401 36 233 8.0 16.1 0.00 0.00 0.00 38 1010.9
20260904182331 36 180 4.8 19.3 0.00 0.00 0.00 40 1011.0
20260904181338 35 164 4.8 16.1 0.00 0.00 0.00 40 1011.1
20260904180344 35 130 9.7 16.1 0.00 0.00 0.00 40 1011.2
20260904175333 35 127 4.8 20.9 0.00 0.00 0.00 41 1011.3
20260904174344 35 115 6.4 12.9 0.00 0.00 0.00 41 1011.3
20260904173330 35 148 11.3 22.5 0.00 0.00 0.00 43 1011.5
20260904172337 34 150 6.4 17.7 0.00 0.00 0.00 44 1011.4
20260904171343 34 167 11.3 17.7 0.00 0.00 0.00 44 1011.5
20260904170356 33 153 4.8 19.3 0.00 0.00 0.00 45 1011.4
20260904165342 33 167 12.9 22.5 0.00 0.00 0.00 46 1011.3
20260904164329 33 178 8.0 19.3 0.00 0.00 0.00 47 1011.3
20260904163336 33 84 8.0 17.7 0.00 0.00 0.00 48 1011.2
20260904162326 33 153 8.0 19.3 0.00 0.00 0.00 49 1011.2
20260904161333 32 99 8.0 19.3 0.00 0.00 0.00 49 1011.1
20260904160339 32 146 14.5 22.5 0.00 0.00 0.00 50 1011.2
20260904155327 32 189 9.7 22.5 0.00 0.00 0.00 51 1011.0
20260904154337 32 140 9.7 16.1 0.00 0.00 0.00 52 1011.0
20260904153342 32 201 8.0 24.1 0.00 0.00 0.00 52 1010.9
20260904152349 32 153 6.4 14.5 0.00 0.00 0.00 53 1011.0
20260904151335 31 171 8.0 16.1 0.00 0.00 0.00 54 1011.0
20260904150326 31 143 4.8 11.3 0.00 0.00 0.00 55 1010.9
20260904145334 31 145 6.4 14.5 0.00 0.00 0.00 55 1010.9
20260904144339 31 192 6.4 14.5 0.00 0.00 0.00 56 1010.9
20260904143326 30 113 4.8 16.1 0.00 0.00 0.00 57 1010.8
20260904142338 30 104 6.4 14.5 0.00 0.00 0.00 58 1010.7
20260904141344 30 169 6.4 12.9 0.00 0.00 0.00 59 1010.6
20260904140351 29 145 4.8 11.3 0.00 0.00 0.00 60 1010.5
20260904135357 29 133 1.6 14.5 0.00 0.00 0.00 60 1010.4
20260904134402 29 131 3.2 11.3 0.00 0.00 0.00 60 1010.3
20260904133349 29 159 4.8 11.3 0.00 0.00 0.00 60 1010.0
20260904132359 28 116 0.0 9.7 0.00 0.00 0.00 60 1009.9
20260904131346 28 146 1.6 8.0 0.00 0.00 0.00 60 1009.7
20260904130330 28 83 3.2 9.7 0.00 0.00 0.00 60 1009.6
20260904125336 29 94 0.0 4.8 0.00 0.00 0.00 59 1009.4
20260904124347 29 136 3.2 11.3 0.00 0.00 0.00 59 1009.2
20260904123332 29 113 3.2 9.7 0.00 0.00 0.00 59 1009.2
20260904122338 29 145 0.0 4.8 0.00 0.00 0.00 58 1009.0
20260904121325 29 115 1.6 4.8 0.00 0.00 0.00 58 1009.0
20260904120337 29 109 1.6 11.3 0.00 0.00 0.00 58 1008.9
20260904115344 29 94 3.2 9.7 0.00 0.00 0.00 57 1009.0
20260904114351 29 84 1.6 6.4 0.00 0.00 0.00 57 1008.9
20260904113339 30 71 0.0 3.2 0.00 0.00 0.00 56 1008.9
20260904112330 30 74 0.0 9.7 0.00 0.00 0.00 56 1008.9
20260904111336 30 119 6.4 12.9 0.00 0.00 0.00 56 1008.9
20260904110344 30 111 1.6 4.8 0.00 0.00 0.00 55 1008.8
20260904105330 30 111 1.6 4.8 0.00 0.00 0.00 55 1008.8
20260904104340 30 59 0.0 8.0 0.00 0.00 0.00 54 1008.8
20260904103327 30 107 3.2 11.3 0.00 0.00 0.00 54 1008.7
20260904102334 30 112 4.8 12.9 0.00 0.00 0.00 54 1008.6
20260904101401 30 92 4.8 11.3 0.00 0.00 0.00 54 1008.4
20260904100331 30 109 3.2 11.3 0.00 0.00 0.00 54 1008.3
20260904095337 30 144 1.6 8.0 0.00 0.00 0.00 54 1008.4
20260904094404 30 94 1.6 9.7 0.00 0.00 0.00 54 1008.4
20260904093351 30 88 1.6 6.4 0.00 0.00 0.00 55 1008.3
20260904092336 30 90 3.2 4.8 0.00 0.00 0.00 55 1008.3
20260904091327 30 85 3.2 6.4 0.00 0.00 0.00 55 1008.2
20260904090334 30 46 1.6 6.4 0.00 0.00 0.00 55 1008.3
20260904085341 30 74 1.6 3.2 0.00 0.00 0.00 54 1008.2
20260904084331 30 65 0.0 3.2 0.00 0.00 0.00 54 1008.2
20260904083339 30 69 0.0 1.6 0.00 0.00 0.00 53 1008.4
20260904082347 31 69 0.0 4.8 0.00 0.00 0.00 53 1008.5
20260904081331 31 78 0.0 4.8 0.00 0.00 0.00 52 1008.5
20260904080336 31 88 0.0 4.8 0.00 0.00 0.00 51 1008.5
20260904075348 31 43 1.6 4.8 0.00 0.00 0.00 51 1008.4
20260904074332 31 59 1.6 3.2 0.00 0.00 0.00 50 1008.3
20260904073358 31 48 0.0 6.4 0.00 0.00 0.00 48 1008.3
20260904072404 32 74 0.0 1.6 0.00 0.00 0.00 47 1008.4
20260904071330 32 74 0.0 1.6 0.00 0.00 0.00 46 1008.4
20260904070341 32 74 0.0 1.6 0.00 0.00 0.00 45 1008.3
20260904065327 32 74 0.0 1.6 0.00 0.00 0.00 45 1008.2
20260904064333 32 182 0.0 1.6 0.00 0.00 0.00 44 1008.1
20260904063340 33 183 0.0 1.6 0.00 0.00 0.00 43 1008.0
20260904062351 33 182 0.0 3.2 0.00 0.00 0.00 43 1008.0
20260904061336 33 155 0.0 8.0 0.00 0.00 0.00 43 1007.9
20260904060344 33 203 4.8 14.5 0.00 0.00 0.00 42 1007.9
20260904055331 33 88 3.2 8.0 0.00 0.00 0.00 42 1007.8
20260904054343 33 177 4.8 11.3 0.00 0.00 0.00 41 1007.7
20260904053329 33 171 4.8 11.3 0.00 0.00 0.00 41 1007.7
20260904052336 33 204 3.2 6.4 0.00 0.00 0.00 39 1007.7
20260904051327 33 186 4.8 11.3 0.00 0.00 0.00 38 1007.6
20260904050333 33 165 3.2 9.7 0.00 0.00 0.00 38 1007.6
20260904045402 33 186 3.2 8.0 0.00 0.00 0.00 38 1007.5
20260904044328 33 218 3.2 8.0 0.00 0.00 0.00 38 1007.5
20260904043334 33 178 1.6 4.8 0.00 0.00 0.00 39 1007.5
20260904042345 33 145 0.0 3.2 0.00 0.00 0.00 40 1007.5
20260904041351 33 153 0.0 3.2 0.00 0.00 0.00 40 1007.4
20260904040336 33 139 1.6 4.8 0.00 0.00 0.00 40 1007.3
20260904035343 33 140 4.8 8.0 0.00 0.00 0.00 40 1007.3
20260904034334 33 114 1.6 4.8 0.00 0.00 0.00 40 1007.1
20260904033342 33 126 1.6 4.8 0.00 0.00 0.00 40 1006.9
20260904032329 33 117 3.2 9.7 0.00 0.00 0.00 40 1006.8
20260904031335 33 112 1.6 4.8 0.00 0.00 0.00 40 1006.8
20260904030345 33 184 0.0 11.3 0.00 0.00 0.00 39 1006.7
20260904025332 34 150 8.0 14.5 0.00 0.00 0.00 38 1006.5
20260904024340 34 153 3.2 12.9 0.00 0.00 0.00 38 1006.5
20260904023328 35 144 3.2 19.3 0.00 0.00 0.00 37 1006.2
20260904022339 35 136 12.9 19.3 0.00 0.00 0.00 37 1006.1
20260904021327 35 149 6.4 20.9 0.00 0.00 0.00 37 1006.0
20260904020354 36 158 9.7 16.1 0.00 0.00 0.00 36 1006.0
20260904015359 36 158 6.4 17.7 0.00 0.00 0.00 35 1005.9
20260904014329 37 101 8.0 22.5 0.00 0.00 0.00 33 1005.8
20260904013336 37 177 0.0 4.8 0.00 0.00 0.00 29 1005.7
20260904012342 37 254 1.6 11.3 0.00 0.00 0.00 29 1005.7
20260904011351 37 236 3.2 6.4 0.00 0.00 0.00 28 1005.7
20260904010337 38 232 4.8 11.3 0.00 0.00 0.00 28 1005.6
20260904005328 38 235 1.6 9.7 0.00 0.00 0.00 28 1005.7
20260904004336 38 175 3.2 11.3 0.00 0.00 0.00 29 1005.8
20260904003343 38 242 6.4 12.9 0.00 0.00 0.00 28 1005.7
20260904002350 38 269 4.8 9.7 0.00 0.00 0.00 27 1005.7
20260904001340 38 289 4.8 12.9 0.00 0.00 0.00 27 1005.7
20260904000328 39 145 3.2 8.0 0.00 0.00 0.00 27 1005.8
20260903235354 39 36 3.2 8.0 0.00 0.00 0.00 27 1005.9
20260903234340 38 283 1.6 6.4 0.00 0.00 0.00 27 1005.9
20260903233331 38 292 3.2 12.9 0.00 0.00 0.00 28 1006.0
20260903232336 38 320 6.4 12.9 0.00 0.00 0.00 28 1006.1
20260903231343 38 223 4.8 16.1 0.00 0.00 0.00 27 1006.2
20260903230349 39 249 3.2 14.5 0.00 0.00 0.00 28 1006.4
20260903225338 38 182 9.7 19.3 0.00 0.00 0.00 28 1006.4
20260903224405 38 150 6.4 16.1 0.00 0.00 0.00 28 1006.5
20260903223332 38 271 6.4 12.9 0.00 0.00 0.00 29 1006.7
20260903222340 38 234 1.6 11.3 0.00 0.00 0.00 29 1006.8
20260903221332 38 218 9.7 16.1 0.00 0.00 0.00 29 1006.9
20260903220339 37 134 4.8 16.1 0.00 0.00 0.00 30 1007.0
20260903215406 37 150 1.6 9.7 0.00 0.00 0.00 30 1007.3
20260903214333 37 244 3.2 14.5 0.00 0.00 0.00 30 1007.5
20260903213340 37 157 8.0 20.9 0.00 0.00 0.00 30 1007.7
20260903212332 37 277 1.6 16.1 0.00 0.00 0.00 30 1007.7
20260903211341 37 98 8.0 17.7 0.00 0.00 0.00 30 1007.9
20260903210328 37 169 4.8 12.9 0.00 0.00 0.00 31 1008.1
20260903205354 37 136 3.2 16.1 0.00 0.00 0.00 30 1008.2
20260903204403 37 190 6.4 19.3 0.00 0.00 0.00 30 1008.4
20260903203349 37 202 3.2 12.9 0.00 0.00 0.00 30 1008.6
20260903202335 37 234 9.7 24.1 0.00 0.00 0.00 29 1008.7
20260903201343 37 84 6.4 17.7 0.00 0.00 0.00 31 1008.9
20260903200355 37 145 9.7 19.3 0.00 0.00 0.00 31 1008.9
20260903195402 37 32 1.6 22.5 0.00 0.00 0.00 30 1009.0
20260903194328 37 153 8.0 16.1 0.00 0.00 0.00 31 1009.2